www.pogodaiklimat.ru

Погода и климат >> Архив погоды >> Россия >> Свердловская область >> Гари


ПОГОДА в Гарях

  • Прогноз погоды в Гарях
  • Монитор погоды в Гарях

АРХИВ ПОГОДЫ в Гарях

Время (UTC), дата Ветер
(напр.,м/с)
 
Видим.   Явления Облачность Т
(С)
Тd
(С)
f
(%)
Тe
(С)
Тes
(С)
Комфортность P
(гПа)
Po
(гПа)
Тmin
(С)
Tmax
(С)
R
(мм)
R24
(мм)
S
(см)
15 10.09 З 3 50 км 8/4 600 м
[Sc Ac und]
+14.4 +6.1 57 +14 +14 1023.7 1008.0 +18.0
18 10.09 СЗ 4 10 км 8/4 600 м
[Sc Ac und]
+13.4 +6.8 64 +12 +12 1024.1 1008.3
21 10.09 С 4 10 км 8/0
[Ac und]
+11.7 +6.4 70 +10 +10 1025.4 1009.5
00 11.09 С 4 10 км 3/0
[Ac und]
+9.2 +6.2 81 +6 +6 1027.7 1011.6
03 11.09 СЗ 2 50 км 6/3
[Sc Ci fib]
+8.2 +7.8 97 +6 +7 1029.6 1013.5 +8.0
06 11.09 Ю 1 50 км 6/0
[Ac und]
+18.6 +1.9 33 +20 +24 1029.8 1014.2
09 11.09 СЗ 3 50 км 8/4 600 м
[Cb calv Ac trans]
+15.5 +8.6 63 +15 +17 1029.1 1013.3
12 11.09 З 3 50 км 8/3 600 м
[Cb calv Ac trans]
+16.9 +7.6 54 +17 +17 1028.0 1012.4
15 11.09 Ю 3 50 км 6/0 600 м
[Ac und]
+14.3 +8.6 69 +13 +13 1025.7 1010.0 +18.6
18 11.09 Ю 3 10 км 6/0
[Ac trans]
+11.0 +5.8 70 +9 +9 1025.2 1009.3
21 11.09 Ю 3 10 км 8/0
[Ac und]
+10.8 +5.6 70 +9 +9 1023.2 1007.3
00 12.09 ЮЗ 2 10 км слаб. ливневой дождь 10/10 600 м
[Cb cap]
+10.2 +8.4 89 +9 +9 1021.6 1005.7
03 12.09 З 2 50 км {ливн. осадки} 9/4 600 м
[Cb calv Ac trans]
+11.6 +10.8 95 +10 +11 1021.4 1005.6 +7.7 3
06 12.09 З 7-10
{11}
50 км {ливн. осадки} 8/8 600 м
[Cb calv]
+15.8 +10.7 72 +14 +15 1021.5 1006.0
09 12.09 СЗ 6
{13}
50 км 8/8 600 м
[Cb calv]
+17.5 +10.4 63 +17 +17 1022.0 1006.5
12 12.09 С 5
{10}
50 км 6/0
[Ac trans]
+16.3 +10.5 69 +15 +16 1022.7 1007.2
15 12.09 З 2 50 км 8/0
[Ac und]
+14.9 +12.5 86 +15 +15 1022.6 1007.0 +17.5
18 12.09 ЮВ 2 10 км 4/0
[Ac trans]
+12.3 +10.2 87 +11 +11 1022.3 1006.5
21 12.09 ЮВ 3 10 км 4/0
[Ac trans]
+11.9 +10.2 89 +10 +10 1021.1 1005.3
00 13.09 ЮВ 4 10 км 6/0
[Ac trans]
+11.3 +9.7 90 +9 +9 1019.3 1003.4
03 13.09 ЮВ 4 50 км 6/0
[Ac trans]
+11.1 +9.9 92 +9 +9 1018.0 1002.2 +10.9
06 13.09 Ю 3 50 км 10/0
[Cs]
+16.1 +12.9 81 +16 +19 1016.3 1000.8
09 13.09 ЮЗ 4 50 км 9/3 600 м
[Cb calv Ac und Ci fib]
+21.1 +12.3 57 +23 +25 комфорт 1014.9 999.7
12 13.09 З 4 50 км 9/3 600 м
[Cb calv Ci sp]
+20.8 +11.4 55 +23 +24 комфорт 1013.9 998.7
15 13.09 З 3
{11}
50 км 10/0
[Ac und Ci fib]
+18.2 +10.8 62 +19 +19 1013.9 998.5 +21.7
18 13.09 ЮЗ 3 10 км 9/0
[Ac und Ci sp]
+15.0 +11.1 77 +14 +14 1014.2 998.6
21 13.09 ЮВ 3 10 км 8/0
[Ac und]
+12.2 +9.9 86 +11 +11 1013.4 997.7
00 14.09 ЮВ 4 10 км 8/0
[Cs]
+11.1 +9.3 89 +9 +9 1012.6 996.9
03 14.09 ЮВ 4 50 км 9/3 600 м
[Cb calv Ac und Ci fib]
+11.2 +9.6 90 +9 +9 1012.0 996.3 +10.4
06 14.09 Ю 2 50 км 6/0
[Ac und]
+15.3 +11.4 78 +15 +18 1011.8 996.3
09 14.09 Ю 2 50 км 9/4 600 м
[Cb calv Ac und]
+18.8 +11.5 63 +20 +21 1011.5 996.2
12 14.09 ЮЗ 3 50 км ясно +22.6 +8.3 40 +24 +25 комфорт 995.2
15 14.09 Ю 4 50 км 3/0
[Ac und]
+16.8 +10.9 68 +16 +16 1010.4 995.0 +24.1
18 14.09 ЮВ 4 10 км 4/0
[Ci fib]
+13.8 +9.9 77 +12 +12 1010.0 994.5
21 14.09 ЮВ 4 10 км 6/0
[Ci fib]
+11.5 +8.5 82 +9 +9 1009.5 993.8
00 15.09 ЮВ 4 10 км 6/0
[Ac und]
+11.6 +9.0 84 +9 +9 1008.8 993.1
03 15.09 ЮВ 5 50 км 8/0
[Ac und]
+11.8 +9.2 84 +9 +9 1007.7 992.2 +11.4
06 15.09 ЮВ 4 50 км 6/0
[Ac trans]
+16.7 +8.3 58 +16 +18 1006.7 991.4
09 15.09 Ю 4 50 км 8/0
[Ac und]
+19.8 +9.3 51 +21 +23 комфорт 1005.7 990.6
12 15.09 Ю 3 50 км 9/0
[Ac und]
+19.9 +10.1 53 +21 +22 комфорт 1004.1 989.0
15 15.09 З 4 50 км 8/4 600 м
[Sc Ac und]
+18.0 +8.8 55 +18 +18 1003.6 988.4 +23.0
18 15.09 Ю 3
{10}
10 км {ливн. осадки} 9/3 600 м
[Cb calv Ac As]
+14.0 +8.4 69 +13 +13 1004.8 989.4
21 15.09 Ю 2 10 км 8/0
[Ac und]
+10.4 +6.3 76 +9 +9 1004.6 989.0
00 16.09 Ю 2 10 км 6/0
[Ac und]
+10.2 +7.3 82 +9 +9 1004.9 989.3
03 16.09 Ю 2 50 км 9/4 600 м
[Sc Ac und]
+8.8 +7.5 92 +7 +7 1004.7 989.0 +5.0 2
06 16.09 Ю 3 50 км 8/8 600 м
[Sc]
+10.2 +7.7 84 +8 +9 1004.1 988.5
09 16.09 ЮВ 4 50 км 6/6 600 м
[Cb calv]
+11.5 +6.9 73 +9 +11 1003.4 987.8
12 16.09 Ю 2 50 км {ливн. осадки} 4/4 600 м
[Cb calv]
+12.9 +4.6 57 +12 +13 1002.0 986.6
15 16.09 ЮВ 4 20 км 4/0
[Ac trans]
+8.5 +5.4 81 +5 +5 1001.5 985.8 +12.9 0.0
18 16.09 ЮВ 4 10 км ясно +7.4 +5.5 88 +4 +4 1000.6 984.8
21 16.09 ЮВ 4 10 км 3/0
[Ac trans]
+7.1 +5.8 91 +3 +3 998.8 983.0
00 17.09 Ю 4 10 км слаб. ливневой дождь 10/10 600 м
[Cb cap]
+7.3 +6.6 95 +4 +4 997.3 981.6
03 17.09 Ю 5 50 км {ливн. осадки} 8/8 300 м
[Cb calv]
+6.6 +6.2 97 +2 +2 995.9 980.2 +6.6 1
06 17.09 Ю 3 50 км {ливн. осадки} 10/10 600 м
[Cb cap]
+8.5 +7.4 93 +6 +6 995.5 979.9
09 17.09 ЮЗ 5 50 км 9/9 600 м
[Cb cap]
+11.1 +6.4 73 +8 +9 996.2 980.7
12 17.09 Ю 5 10 км слаб. ливневой дождь 9/8 600 м
[Cb cap Ac und]
+12.2 +7.0 71 +10 +10 997.0 981.6

 

Местоположение метеостанции Гари (Свердловская область, Россия): широта 59.43 долгота 62.33 высота над уровнем моря 131 м.

В архиве по умолчанию представлена погода в Гарях за последнюю неделю. Архивные данные за месяц целиком и за предыдущие месяцы, начиная с января 2011 года, Вы можете получить, выбрав интересующий диапазон дат из раскрывающегося списка и нажав кнопку "Ввод!".


*Определитесь, кто Вы:
робот инопланетянин человек

Внимание! Время в таблицах - всемирное. Для получения местного времени необходимо прибавить поправку, которая равна 5 ч.

Смотрите также архив погоды в соседних городах и на ближайших метеорологических станциях:

Погода в Серове (Свердловская область, Россия) (103 км)
Погода в Верхотурье (Свердловская область, Россия) (108 км)
Погода в Карпинске (Свердловская область, Россия) (136 км)
Погода в Шаиме (Ханты-Мансийский АО, Россия) (145 км)
Погода в Североуральске (Свердловская область, Россия) (159 км)
Погода в Таборах (Свердловская область, Россия) (160 км)
Погода в Туринске (Свердловская область, Россия) (172 км)
Погода в Ивделе (Свердловская область, Россия) (174 км)
Погода в Кытлыме (Свердловская область, Россия) (176 км)
Погода в Алапаевске (Свердловская область, Россия) (177 км)

Пояснения к столбцам:

Ветер - указаны скорость ветра в м/с - средняя за 10 мин, порывы в срок и между сроками (в фигурных скобках) и направление, откуда дует ветер: С - северный, СВ - северо-восточный, В - восточный, ЮВ - юго-восточный, Ю - южный, ЮЗ - юго-западный, З - западный, СЗ - северо-западный.
Видимость - горизонтальная дальность видимости в метрах или километрах. При видимости от 1 до 10 км при отсутствии осадков обычно наблюдается дымка, при ухудшении видимости до 1 км и менее - туман. В сухую погоду видимость может ухудшаться дымом, пылью или мглою.
Явления - указаны атмосферные явления, наблюдавшиеся в срок или в последний час перед сроком; фигурными скобками обозначены явления, наблюдавшиеся между сроками (за 1-3 часа до срока); квадратными скобками обозначены град или гололедные отложения с указанием их диаметра в мм.
Облачность - указаны через наклонную черту общая и нижняя облачность в баллах и высота нижней границы облаков в метрах; квадратными скобками обозначены формы облаков: Ci - перистые, Cs - перисто-слоистые, Cc - перисто-кучевые, Ac - высококучевые, As - высокослоистые, Sc - слоисто-кучевые, Ns - слоисто-дождевые, Cu - кучевые, Cb - кучево-дождевые. Подробнее классификацию облаков см. в Атласе облаков (PDF).
T - Температура воздуха - температура, измеренная на высоте 2 м над землей.
Td - Температура точки росы - температура, при понижении до которой содержащийся в воздухе водяной пар достигнет насыщения.
f - Относительная влажность воздуха - влажноcть воздуха, измеренная на высоте 2 м над землей.
Te - Эффективная температура - температура, которую ощущает одетый по сезону человек в тени. Характеристика душности погоды. При расчете учитывается влияние влажности воздуха и скорости ветра на теплоощущения человека.
Tes - Эффективная температура на солнце - температура, которую ощущает человек, с поправкой на солнечный нагрев. Характеристика знойности погоды. Зависит от высоты солнца над горизонтом, облачности и скорости ветра. Ночью, в пасмурную погоду, а также при ветре 12 м/с и более поправка равна нулю.
P - Атмосферное давление - приведенное к уровню моря атмосферное давление.
Po - Атмосферное давление - измеренное на уровне метеостанции атмосферное давление.
Tmin - Минимальная температура - минимум температуры воздуха на высоте 2 м над землей.
Tmax - Максимальная температура - максимум температуры воздуха на высоте 2 м над землей.
R - Количество осадков - Количество выпавших осадков за период времени, мм. При наведении курсора мыши на число - период времени, за который выпало указанное количество осадков.
R24 - Количество осадков - Количество выпавших осадков за 24 часа, мм.
S - Снежный покров - Высота снежного покрова, см. При наведении курсора мыши на число - состояние снежного покрова и степень покрытия местности в баллах.